Location: *
(43.7000°S, 168.7000°W)
Time: 14:50:55
(UTC+00:00)

Cosmos 2297 Rocket - Pass Details

Date: 07 July 2020
Orbit: 839 x 843 km, 71.0° (Epoch: 03 August)

Event Time Altitude Azimuth Distance (km) Brightness Sun altitude
Exits shadow 18:14:17 - 233° (SW) 2,775 4.2 -6.1°
Reaches altitude 10° 18:15:28 10° 242° (WSW) 2,486 4.0 -5.9°
Maximum altitude 18:18:45 16° 278° (W) 2,088 3.8 -5.4°
Drops below altitude 10° 18:22:02 10° 313° (NW) 2,466 4.4 -4.9°
Sets 18:25:25 0° 334° (NNW) 3,389 5.4 -4.3°
